FENGYUN 1C DEB, 30949

Orbit data source: Space-Track

FENGYUN 1C DEB, 30949 is space debris in SSO originally from a launch on Mon, 10 May 1999 UTC launched from the Taiyaun Space Center, China (TSC). Fengyun 1C debris stems from the Chinese weather satellite Fengyun-1C, which was intentionally destroyed by a Chinese anti-satellite missile in 2007. This event dramatically increased the amount of space debris, with thousands of trackable fragments posing hazards to satellites and human spaceflight. The Fengyun 1C debris cloud has become a focal point in discussions about space sustainability and the need for international regulations to prevent the creation of new debris.

Loading next visibility...
Identifier
30949, 1999-025BAP
Orbit
SSO
Country
Flag of CNCN / PRC
Related business
Manufacturer
Unknown
Mission
Spacecraft
Bus & Motor
Unknown
Mass
Unknown
Launch date (UTC)
1999-05-10 (27 years ago)
Launch vehicle
Unknown
Launch site
Taiyaun Space Center, China (TSC)
Object type
Payload
Rocket body
Debris
Shape & HBR
Unknown shape, 0.1 m
Radar Cross Section
Medium (>0.1 m² and <1 m²)

Expand to show TLE details & history
Last TLE update: 18 hours ago

TLE from 18 hours ago
0 FENGYUN 1C DEB
1 30949U 99025BAP 26255.95856667  .00000188  00000-0  11394-3 0  9990
2 30949  98.7149 248.3948 0115541 246.5885 139.5885 14.14267792  3902
Epoch: 2026-09-12T23:00Z
TLE epoch observation values (Epoch: 2026-09-12T23:00:20.160Z)
Latitude
26.72567°
Longitude
-93.0527°
Altitude
912.006 km
Speed
7.365 km/s
True Right ascension
16h 15m 57s
True Declination
26° 35' 27"
Sunlit
Object was in daylight at epoch
Visualization orbit readout
Latitude
Unknown
Longitude
Unknown
Altitude
Unknown
Speed
Unknown
Apparent Right ascension
Unknown
Apparent Declination
Unknown
Sunlit
N/A
Visualization observer readout
Local Sidereal Time
09:27:28
Azimuth
Unknown
Elevation
Unknown
Doppler factor
Unknown
Orbital elements
Apogee altitude
925.392 km
Perigee altitude
758.548 km
Semi-major axis
7,220.107 km
Eccentricity
0.01155
Inclination
98.7149°
RAAN
248.3948°
Arg. of periapsis
246.5885°
True anomaly
140.43744°
Mean anomaly
139.5885°
Eccentric anomaly
140.0139°
Mean motion
3.53775 °/min
Orbital period
101.76 mins
BSTAR
0.00011394
Loading maneuver chart data...
Computing Atmospheric mass density...

Documentation

Showing up to 5 results
|